Terminal Aerodrome Forecast
Issued by NWS Sioux Falls, SD

Home | Current Version | Previous Version | Graphics & Text | Print | Product List | Glossary Off
Versions: 1 2 3 4 5 6 7 8 9 10 11 12 13 14 15 16 17 18 19

000
FTUS43 KFSD 241100
TAFHON
TAF
KHON 241140Z 2412/2512 13009KT P6SM BKN090
      TEMPO 2412/2413 5SM TSRA OVC050CB
     FM241400 15012G18KT P6SM BKN120
     FM241700 16020G27KT P6SM SCT045 BKN200
     FM250300 14012KT P6SM BKN120
     FM250900 17008KT P6SM BKN150=

USA.gov is the U.S. government's official web portal to all federal, state and local government web resources and services.